Location: Dortmund
(51.5019°N, 7.6520°E)
Time: 15:04:55
(UTC+02:00)

Tiangong 2 - Visible Passes

Search period start: 21 May 2018 00:00
Search period end: 31 May 2018 00:00
Orbit: 382 x 386 km, 42.8° (Epoch: 21 May)

Date Brightness Start Highest point End Pass type
(mag) Time Alt. Az. Time Alt. Az. Time Alt. Az.
23 May 3.0 22:35:23 10° SSW 22:37:03 14° SSE 22:37:43 13° SSE visible
24 May 2.8 23:11:20 10° SW 23:13:16 17° S 23:13:16 17° S visible
25 May 2.9 22:11:54 10° SSW 22:13:54 16° S 22:15:55 10° SE visible
25 May 3.4 23:47:57 10° SW 23:48:33 12° SW 23:48:33 12° SW visible
26 May 2.8 22:48:12 10° SW 22:50:20 17° S 22:51:28 14° SSE visible
27 May 3.2 23:25:10 10° SW 23:26:29 13° SSW 23:26:29 13° SSW visible
28 May 3.0 22:25:11 10° SW 22:27:10 16° S 22:29:09 10° SSE visible
29 May 3.5 23:03:02 10° SSW 23:03:31 10° SSW 23:03:59 10° SSW visible
